Kansas Department of Transportation
RWIS(Road and Runway Information System) Map and Weather Data





Station
Surface
Air
Wind
Site IDSensor TypeLocationTemperature (°F)Temperature (°F)Humidity (%)Speed (mi/h)Gusts (mi/h)DirectionTime
123014AtmosphericBull Creek 6341816SEApr 24 2017 9:55AM
123014DeckBull Creek77     Apr 24 2017 9:55AM
123014DepartureBull Creek79     Apr 24 2017 9:55AM
123015AtmosphericLeavenworth 6437919SSWApr 24 2017 9:55AM
123015DeckLeavenworth75     Apr 24 2017 9:55AM
123015DepartureLeavenworth75     Apr 24 2017 9:55AM
123020AtmosphericMayetta 63391621SApr 24 2017 9:55AM
123020RoadwayMayetta79     Apr 24 2017 9:55AM
123020DeckMayetta79     Apr 24 2017 9:55AM
505000AtmosphericKTA 1 6343612SSEApr 24 2017 9:50AM
505000ApproachKTA 172     Apr 24 2017 9:50AM
505000DeckKTA 175     Apr 24 2017 9:50AM
505001AtmosphericKTA 2 6150919SSWApr 24 2017 9:50AM
505001ApproachKTA 275     Apr 24 2017 9:50AM
505001DeckKTA 275     Apr 24 2017 9:50AM
505002AtmosphericKTA 3 6354921SApr 24 2017 9:50AM
505002ApproachKTA 375     Apr 24 2017 9:50AM
505002DeckKTA 372     Apr 24 2017 9:50AM
505003AtmosphericKTA 4 61401724SEApr 24 2017 9:50AM
505003ApproachKTA 475     Apr 24 2017 9:50AM
505003DeckKTA 473     Apr 24 2017 9:50AM
505004AtmosphericKTA 5 59991722SApr 24 2017 9:50AM
505004RoadwayKTA 573     Apr 24 2017 9:50AM
505004RoadwayKTA 573     Apr 24 2017 9:50AM
505005AtmosphericKTA 6 6344915SSEApr 24 2017 9:50AM
505005Approach KTA 675     Apr 24 2017 9:50AM
505005DeckKTA 672     Apr 24 2017 9:50AM
505006AtmosphericKTA 7 61511119SSWApr 24 2017 9:50AM
505006ApproachKTA 7Unavailable     Apr 24 2017 9:50AM
505006DeckKTA 772     Apr 24 2017 9:50AM
505007AtmosphericKTA 8 6352817SApr 24 2017 9:50AM
505007ApproachKTA 875     Apr 24 2017 9:50AM
505007DeckKTA 873     Apr 24 2017 9:50AM
505008AtmosphericKTA 9 6410714SApr 24 2017 9:50AM
505008ApproachKTA 979     Apr 24 2017 9:50AM
505008DeckKTA 973     Apr 24 2017 9:50AM
505009AtmosphericKTA 10 7020211SSWApr 24 2017 9:50AM
505009ApproachKTA 1075     Apr 24 2017 9:50AM
505009DeckKTA 1072     Apr 24 2017 9:50AM
505010AtmosphericWebb 63421118SEApr 24 2017 9:55AM
505010DeckWebb72     Apr 24 2017 9:55AM
505010NullWebb75     Apr 24 2017 9:55AM
505014AtmosphericI-135 59491121SApr 24 2017 9:50AM
505014ApproachI-13572     Apr 24 2017 9:50AM
505014DeckI-13572     Apr 24 2017 9:50AM
540000AtmosphericBlue Rapids 63461019SSEApr 24 2017 9:55AM
540000DeckBlue Rapids70     Apr 24 2017 9:55AM
540000DepartureBlue Rapids75     Apr 24 2017 9:55AM
540001AtmosphericSabetha 63391422SApr 24 2017 9:55AM
540001ApproachSabetha77     Apr 24 2017 9:55AM
540001DeckSabetha75     Apr 24 2017 9:55AM
540002AtmosphericWestgate 6439916SSEApr 24 2017 9:55AM
540002DeckWestgate75     Apr 24 2017 9:55AM
540002DepartureWestgate79     Apr 24 2017 9:55AM
540005AtmosphericLawrence 6440717ESEApr 24 2017 9:55AM
540005ApproachLawrence75     Apr 24 2017 9:55AM
540005DeckLawrence81     Apr 24 2017 9:55AM
540006AtmosphericTroy 64521319SEApr 24 2017 9:55AM
540006DeckTroy73     Apr 24 2017 9:55AM
540006DepartureTroy79     Apr 24 2017 9:55AM
540007AtmosphericManhattan 6340411SApr 24 2017 9:55AM
540007DepartureManhattan73     Apr 24 2017 9:55AM
540007DeckManhattan81     Apr 24 2017 9:55AM
541000AtmosphericElkhart 68301016WSWApr 24 2017 9:55AM
541000ApproachElkhartUnavailable     Apr 24 2017 9:55AM
541000DeckElkhartUnavailable     Apr 24 2017 9:55AM
541001AtmosphericSyracuse 6639816NNEApr 24 2017 9:55AM
541001Out of Service for WinterSyracuse72     Apr 24 2017 9:55AM
541001DeckSyracuse68     Apr 24 2017 9:55AM
541002AtmosphericLiberal 6437715SSWApr 24 2017 9:55AM
541002ApproachLiberalUnavailable     Apr 24 2017 9:55AM
541002DeckLiberalUnavailable     Apr 24 2017 9:55AM
541003AtmosphericFord 61451621SApr 24 2017 9:55AM
541003DeckFord68     Apr 24 2017 9:55AM
541003DepartureFord72     Apr 24 2017 9:55AM
541004AtmosphericScott 6411915SEApr 24 2017 9:55AM
541004DepartureScott73     Apr 24 2017 9:55AM
541005AtmosphericNess 613700SWApr 24 2017 9:55AM
541005DeckNess72     Apr 24 2017 9:55AM
541005DepartureNess75     Apr 24 2017 9:55AM
541007AtmosphericGarden City 6346813WSWApr 24 2017 9:55AM
541007ApproachGarden City63     Apr 24 2017 9:55AM
541007DeckGarden City70     Apr 24 2017 9:55AM
543000AtmosphericJunction City 6340721NNEApr 24 2017 9:55AM
543000ApproachJunction City81     Apr 24 2017 9:55AM
543000DeckJunction City77     Apr 24 2017 9:55AM
543001AtmosphericEllsworth 61322535NWApr 24 2017 9:55AM
543001RoadwayEllsworth73     Apr 24 2017 9:55AM
543002AtmosphericMcPherson 59541927SApr 24 2017 9:55AM
543002ApproachMcPherson68     Apr 24 2017 9:55AM
543003AtmosphericSalina 52351824NApr 24 2017 9:55AM
543003DepartureSalina72     Apr 24 2017 9:55AM
543003RoadwaySalinaUnavailable     Apr 24 2017 9:55AM
543004AtmosphericConcordia 61461624SApr 24 2017 9:55AM
543004ApproachConcordiaUnavailable     Apr 24 2017 9:55AM
543004DeckConcordia66     Apr 24 2017 9:55AM
543005AtmosphericPeabody 50491317WNWApr 24 2017 9:55AM
543005ApproachPeabody75     Apr 24 2017 9:55AM
543005DeckPeabodyUnavailable     Apr 24 2017 9:55AM
560000AtmosphericEdson 61411216NApr 24 2017 9:55AM
560000RoadwayEdson72     Apr 24 2017 9:55AM
560000RoadwayEdson70     Apr 24 2017 9:55AM
560001AtmosphericOakley 64451316NNWApr 24 2017 9:55AM
560001ApproachOakley75     Apr 24 2017 9:55AM
560001DeckOakley75     Apr 24 2017 9:55AM
560002AtmosphericAtwood 6448916NWApr 24 2017 9:55AM
560002ApproachAtwood68     Apr 24 2017 9:55AM
560002DeckAtwood73     Apr 24 2017 9:55AM
560003AtmosphericJennings 634767NNEApr 24 2017 9:55AM
560003ApproachJennings75     Apr 24 2017 9:55AM
560003DeckJennings73     Apr 24 2017 9:55AM
560004AtmosphericWakeeney 64381219SSWApr 24 2017 9:55AM
560004ApproachWakeeney73     Apr 24 2017 9:55AM
560004DeckWakeeney72     Apr 24 2017 9:55AM
560005AtmosphericWalker 61361722SSWApr 24 2017 9:55AM
560005ApproachWalker73     Apr 24 2017 9:55AM
560005DeckWalker77     Apr 24 2017 9:55AM
560006AtmosphericBow Creek(Stockton) 61301620SSWApr 24 2017 9:55AM
560006ApproachBow Creek(Stockton)75     Apr 24 2017 9:55AM
560006DeckBow Creek(Stockton)72     Apr 24 2017 9:55AM
560007AtmosphericLebanon 61431524SApr 24 2017 9:55AM
560007ApproachLebanon72     Apr 24 2017 9:55AM
560007DeckLebanon70     Apr 24 2017 9:55AM
560008AtmosphericWallace 6424410NApr 24 2017 9:55AM
560008ApproachWallace75     Apr 24 2017 9:55AM
560008DeckWallace70     Apr 24 2017 9:55AM
572000AtmosphericGreat Bend 59531222SWApr 24 2017 9:55AM
572000ApproachGreat Bend73     Apr 24 2017 9:55AM
572000DeckGreat Bend70     Apr 24 2017 9:55AM
572001AtmosphericPratt 571728NEApr 24 2017 9:55AM
572001ApproachPratt73     Apr 24 2017 9:55AM
572001DeckPratt72     Apr 24 2017 9:55AM
572002AtmosphericAnthony 6154615SSEApr 24 2017 9:55AM
572002ApproachAnthony73     Apr 24 2017 9:55AM
572002DeckAnthony70     Apr 24 2017 9:55AM
573000AtmosphericEureka 61451122SApr 24 2017 9:55AM
573000DeckEureka73     Apr 24 2017 9:55AM
573000DepartureEureka72     Apr 24 2017 9:55AM
573001AtmosphericGarnett 63461012SApr 24 2017 9:55AM
573001ApproachGarnett77     Apr 24 2017 9:55AM
573001DeckGarnett77     Apr 24 2017 9:55AM
573002AtmosphericCaney 6639914EApr 24 2017 9:55AM
573002RoadwayCaney77     Apr 24 2017 9:55AM
573003AtmosphericChetopa 635738ESEApr 24 2017 9:55AM
573003DeckChetopa81     Apr 24 2017 9:55AM
573003DepartureChetopa84     Apr 24 2017 9:55AM
573004AtmosphericChanute 634549SEApr 24 2017 9:55AM
573004ApproachChanute81     Apr 24 2017 9:55AM
573004DeckChanute75     Apr 24 2017 9:55AM